Regional Weather Roundup
Issued by NWS Kansas City/Pleasant Hill, MO

Home | Current Version | Previous Version | Text Only | Print | Product List | Glossary On
Versions: 1 2 3 4 5 6 7 8 9 10 11 12 13 14 15 16 17 18 19 20 21 22 23 24 25 26 27 28 29 30 31 32 33 34 35 36 37 38 39 40 41 42 43 44 45 46 47 48 49 50
000
ASUS43 KEAX 302204
RWREAX

WEATHER ROUNDUP FOR EASTERN KANSAS AND NORTHWEST MISSOURI
NATIONAL WEATHER SERVICE KANSAS CITY/PLEASANT HILL MO
500 PM CDT SAT MAY 30 2015

KSZ040-057-103>105-MOZ028-029-037-043-302300-
...KANSAS CITY METROPOLITAN AREA...

CITY           SKY/WX    TMP DP  RH WIND       PRES   REMARKS
K.C. INTL      CLOUDY    59  55  87 N12       30.11S
K.C. DOWNTOWN  CLOUDY    62  54  74 N10       30.10S
LEES SUMMIT    CLOUDY    61  55  81 N12       30.10S
OLATHE - IXD   CLOUDY    60  54  80 N14       30.12S
OLATHE - OJC   CLOUDY    61  55  81 NW13      30.10S
LAWRENCE       CLOUDY    61  53  75 NW12      30.13S

$$

MOZ001>008-011>017-020>025-030>033-038>040-044>046-053-054-302300-
...NORTHERN AND CENTRAL MISSOURI...

CITY           SKY/WX    TMP DP  RH WIND       PRES   REMARKS
ST. JOSEPH     CLOUDY    61  55  81 N14       30.12S
MOSBY          CLOUDY    61  55  82 NW10      30.10S
HARRISONVILLE  CLOUDY    63  57  82 NW10G16   30.12S
WARRENSBURG    CLOUDY    63  55  77 NW9G17    30.08S
WHITEMAN AFB   CLOUDY    63  57  82 NW13      30.06F
CLINTON        CLOUDY    63  59  88 NW12      30.08S
SEDALIA        CLOUDY    65  59  81 NW12      30.07R
WARSAW         CLOUDY    63  59  88 NW10      30.07S
CHILLICOTHE      N/A     64  57  78 N7        30.09S
MOBERLY        CLOUDY    66  57  72 N13       30.05R
KIRKSVILLE     CLOUDY    62  57  83 NW15G22   30.07R

$$

MOZ041-047>049-056>058-063>065-088>090-097-302300-
...EASTERN AND SOUTHERN MISSOURI...

CITY           SKY/WX    TMP DP  RH WIND       PRES   REMARKS
ST. LOUIS INTL CLOUDY    73  65  75 N12       29.94R
SPIRIT OF STL  PTSUNNY   76  68  76 N8        29.92F
COLUMBIA       CLOUDY    68  62  81 NW15      30.01R
JEFFERSON CITY CLOUDY    71  62  73 NW17G24   30.00R
ROLLA          CLOUDY    67  65  93 N10       29.98R
OSAGE BEACH    CLOUDY    66  61  82 NW7       30.03R
SPRINGFIELD    CLOUDY    66  61  84 NW13      30.05S
BRANSON        PTSUNNY   72  64  78 NW13G20   30.04S
NEVADA         CLOUDY    63  57  82 NW10      30.10S
JOPLIN         CLOUDY    64  59  83 N9        30.09S
WEST PLAINS    MOSUNNY   77  64  64 N10       29.99S
MALDEN         MOSUNNY   79  66  65 W15G22    29.96S

$$

IAZ060-094-KSZ022-034>040-054-083-096-NEZ052-066-093-302300-
...KANSAS...SOUTHEAST NEBRASKA AND IOWA...

CITY           SKY/WX    TMP DP  RH WIND       PRES   REMARKS
TOPEKA         CLOUDY    61  54  77 N8        30.14S
MANHATTAN      CLOUDY    61  54  77 N7        30.16F
EMPORIA        CLOUDY    60  52  74 NW14      30.13F
CHANUTE        CLOUDY    63  56  78 N10       30.11F
WICHITA        PTSUNNY   67  53  61 N14G21    30.14F
OMAHA          MOSUNNY   70  41  34 NE13      30.16S
LINCOLN        SUNNY     70  41  34 N16       30.17F
FALLS CITY     CLOUDY    65  53  65 N14       30.12F
LAMONI         CLOUDY    64  55  72 N12       30.10F
DES MOINES     CLOUDY    63  53  70 NE13G24   30.13R

$$




USA.gov is the U.S. government's official web portal to all federal, state and local government web resources and services.